Hourly Weather Bolshie Moshki

Today, 20 June, Sunday

Time Temperature Precipitation Wind Pressure Humidity
00:00 +18°C° 0 mm 1 mps 743 mmHg 85%
01:00 +18°C° 0 mm 1 mps 743 mmHg 88%
02:00 +16°C° 0 mm 1 mps 744 mmHg 91%
03:00 +18°C° 0 mm 1 mps 743 mmHg 89%
04:00 +19°C° 0 mm 1 mps 743 mmHg 87%
05:00 +19°C° 0 mm 1 mps 743 mmHg 86%
06:00 +21°C° 0 mm 1 mps 743 mmHg 78%
07:00 +23°C° 0 mm 1 mps 743 mmHg 70%
08:00 +26°C° 0 mm 2 mps 743 mmHg 62%
09:00 +27°C° 0 mm 2 mps 743 mmHg 57%
10:00 +28°C° 0 mm 2 mps 743 mmHg 52%
11:00 +29°C° 0 mm 2 mps 743 mmHg 47%
12:00 +30°C° 0 mm 2 mps 743 mmHg 45%
13:00 +31°C° 0 mm 2 mps 743 mmHg 42%
14:00 +31°C° 0 mm 2 mps 742 mmHg 40%
15:00 +31°C° 0 mm 2 mps 742 mmHg 41%
16:00 +31°C° 0 mm 2 mps 742 mmHg 43%
17:00 +31°C° 0 mm 1 mps 742 mmHg 44%
18:00 +29°C° 0 mm 1 mps 742 mmHg 54%
19:00 +27°C° 0 mm 1 mps 741 mmHg 64%
20:00 +25°C° 0 mm 1 mps 741 mmHg 73%
21:00 +24°C° 0 mm 2 mps 741 mmHg 74%
22:00 +24°C° 0 mm 2 mps 742 mmHg 75%
23:00 +24°C° 0 mm 2 mps 742 mmHg 76%

Tomorrow, 21 June, Monday

Time Temperature Precipitation Wind Pressure Humidity
00:00 +23°C° 0 mm 2 mps 742 mmHg 79%
01:00 +23°C° 0 mm 2 mps 742 mmHg 81%
02:00 +22°C° 0 mm 1 mps 742 mmHg 83%
03:00 +22°C° 0 mm 1 mps 742 mmHg 84%
04:00 +22°C° 0 mm 1 mps 742 mmHg 84%
05:00 +22°C° 0 mm 1 mps 742 mmHg 85%
06:00 +23°C° 0 mm 1 mps 742 mmHg 77%
07:00 +25°C° 0 mm 1 mps 742 mmHg 69%
08:00 +27°C° 0 mm 1 mps 743 mmHg 62%
09:00 +28°C° 0 mm 2 mps 742 mmHg 57%
10:00 +29°C° 0 mm 2 mps 742 mmHg 52%
11:00 +30°C° 0 mm 3 mps 742 mmHg 47%
12:00 +31°C° 0 mm 3 mps 742 mmHg 45%
13:00 +31°C° 0 mm 3 mps 742 mmHg 43%
14:00 +31°C° 0 mm 3 mps 742 mmHg 41%
15:00 +31°C° 0 mm 3 mps 742 mmHg 44%
16:00 +30°C° 0 mm 3 mps 741 mmHg 46%
17:00 +30°C° 0 mm 3 mps 741 mmHg 49%
18:00 +27°C° 0 mm 2 mps 741 mmHg 58%
19:00 +25°C° 0 mm 2 mps 741 mmHg 67%
20:00 +23°C° 0 mm 2 mps 741 mmHg 76%
21:00 +21°C° 0 mm 2 mps 741 mmHg 78%
22:00 +20°C° 0 mm 2 mps 741 mmHg 80%
23:00 +19°C° 0 mm 2 mps 741 mmHg 82%

Day after tomorrow, 22 June, Tuesday

Time Temperature Precipitation Wind Pressure Humidity
00:00 +19°C° 0 mm 2 mps 741 mmHg 85%
01:00 +18°C° 0 mm 2 mps 741 mmHg 88%
02:00 +18°C° 0 mm 2 mps 741 mmHg 91%
03:00 +19°C° 0 mm 2 mps 741 mmHg 90%
04:00 +19°C° 0 mm 2 mps 741 mmHg 89%
05:00 +21°C° 0 mm 1 mps 742 mmHg 88%
06:00 +23°C° 0 mm 2 mps 742 mmHg 78%
07:00 +25°C° 0 mm 2 mps 742 mmHg 69%
08:00 +27°C° 0 mm 3 mps 742 mmHg 59%
09:00 +28°C° 0 mm 3 mps 742 mmHg 53%
10:00 +30°C° 0 mm 3 mps 742 mmHg 46%
11:00 +32°C° 0 mm 4 mps 742 mmHg 39%
12:00 +33°C° 0 mm 4 mps 741 mmHg 37%
13:00 +34°C° 0 mm 4 mps 741 mmHg 35%
14:00 +34°C° 0 mm 4 mps 741 mmHg 33%
15:00 +34°C° 0 mm 4 mps 741 mmHg 36%
16:00 +33°C° 0 mm 4 mps 741 mmHg 39%
17:00 +33°C° 0 mm 3 mps 741 mmHg 41%
18:00 +30°C° 0 mm 3 mps 741 mmHg 52%
19:00 +27°C° 0 mm 3 mps 741 mmHg 63%
20:00 +25°C° 0 mm 2 mps 741 mmHg 74%
21:00 +24°C° 0 mm 2 mps 741 mmHg 77%
22:00 +24°C° 0 mm 2 mps 741 mmHg 80%
23:00 +23°C° 0 mm 2 mps 741 mmHg 84%

23 June, Wednesday

Time Temperature Precipitation Wind Pressure Humidity
00:00 +21°C° 0 mm 2 mps 741 mmHg 87%
01:00 +21°C° 0 mm 2 mps 741 mmHg 91%
02:00 +20°C° 0 mm 2 mps 741 mmHg 95%
03:00 +20°C° 0 mm 2 mps 741 mmHg 92%
04:00 +21°C° 0 mm 2 mps 742 mmHg 90%
05:00 +23°C° 0 mm 2 mps 742 mmHg 88%
06:00 +25°C° 0 mm 2 mps 742 mmHg 80%
07:00 +26°C° 0 mm 2 mps 742 mmHg 71%
08:00 +28°C° 0 mm 3 mps 742 mmHg 62%
09:00 +30°C° 0 mm 3 mps 742 mmHg 54%
10:00 +31°C° 0 mm 3 mps 742 mmHg 47%
11:00 +34°C° 0 mm 4 mps 742 mmHg 39%
12:00 +34°C° 0 mm 4 mps 742 mmHg 37%
13:00 +35°C° 0 mm 4 mps 742 mmHg 34%
14:00 +36°C° 0 mm 4 mps 742 mmHg 31%
15:00 +35°C° 0 mm 3 mps 741 mmHg 33%
16:00 +35°C° 0 mm 3 mps 741 mmHg 36%
17:00 +34°C° 0 mm 3 mps 741 mmHg 38%
18:00 +31°C° 0 mm 3 mps 741 mmHg 49%
19:00 +29°C° 0 mm 2 mps 741 mmHg 60%
20:00 +26°C° 0 mm 2 mps 741 mmHg 71%
21:00 +25°C° 0 mm 2 mps 741 mmHg 73%
22:00 +24°C° 0 mm 2 mps 741 mmHg 74%
23:00 +23°C° 0 mm 1 mps 742 mmHg 76%

24 June, Thursday

Time Temperature Precipitation Wind Pressure Humidity
00:00 +23°C° 0 mm 2 mps 742 mmHg 78%
01:00 +21°C° 0 mm 2 mps 742 mmHg 80%
02:00 +21°C° 0 mm 2 mps 742 mmHg 82%
03:00 +21°C° 0 mm 2 mps 742 mmHg 82%
04:00 +23°C° 0 mm 1 mps 742 mmHg 82%
05:00 +23°C° 0 mm 1 mps 742 mmHg 82%
06:00 +25°C° 0 mm 1 mps 742 mmHg 74%
07:00 +27°C° 0 mm 2 mps 742 mmHg 67%
08:00 +29°C° 0 mm 2 mps 742 mmHg 59%
09:00 +31°C° 0 mm 2 mps 742 mmHg 53%
10:00 +33°C° 0 mm 3 mps 742 mmHg 47%
11:00 +35°C° 0 mm 3 mps 742 mmHg 41%
12:00 +35°C° 0 mm 3 mps 742 mmHg 38%
13:00 +36°C° 0 mm 3 mps 742 mmHg 35%
14:00 +37°C° 0 mm 3 mps 741 mmHg 32%
15:00 +36°C° 0 mm 3 mps 741 mmHg 34%
16:00 +35°C° 0 mm 3 mps 741 mmHg 37%
17:00 +35°C° 0 mm 3 mps 741 mmHg 39%
18:00 +31°C° 0 mm 3 mps 741 mmHg 48%
19:00 +29°C° 0 mm 2 mps 740 mmHg 58%
20:00 +26°C° 0 mm 2 mps 740 mmHg 67%
21:00 +25°C° 0 mm 2 mps 741 mmHg 72%
22:00 +24°C° 0 mm 1 mps 741 mmHg 76%
23:00 +23°C° 0 mm 1 mps 741 mmHg 81%

25 June, Friday

Time Temperature Precipitation Wind Pressure Humidity
00:00 +22°C° 0.1 mm 1 mps 741 mmHg 84%
01:00 +22°C° 0.1 mm 1 mps 741 mmHg 88%
02:00 +21°C° 0.1 mm 1 mps 741 mmHg 91%
03:00 +22°C° 0 mm 1 mps 741 mmHg 91%
04:00 +22°C° 0 mm 1 mps 741 mmHg 90%
05:00 +23°C° 0 mm 1 mps 741 mmHg 90%
06:00 +25°C° 0 mm 2 mps 741 mmHg 80%
07:00 +27°C° 0 mm 2 mps 741 mmHg 70%
08:00 +29°C° 0 mm 2 mps 741 mmHg 61%
09:00 +31°C° 0 mm 2 mps 741 mmHg 54%
10:00 +33°C° 0 mm 3 mps 741 mmHg 47%
11:00 +35°C° 0 mm 3 mps 741 mmHg 39%
12:00 +35°C° 0 mm 3 mps 741 mmHg 37%
13:00 +35°C° 0 mm 3 mps 741 mmHg 35%
14:00 +36°C° 0 mm 3 mps 740 mmHg 33%
15:00 +35°C° 0 mm 3 mps 740 mmHg 36%
16:00 +35°C° 0 mm 2 mps 739 mmHg 39%
17:00 +34°C° 0 mm 2 mps 739 mmHg 41%
18:00 +31°C° 0 mm 2 mps 739 mmHg 51%
19:00 +28°C° 0 mm 2 mps 739 mmHg 61%
20:00 +26°C° 0 mm 2 mps 739 mmHg 71%
21:00 +24°C° 1.3 mm 2 mps 739 mmHg 79%
22:00 +23°C° 1.3 mm 2 mps 739 mmHg 88%
23:00 +20°C° 1.3 mm 2 mps 740 mmHg 97%
Show more